timestamp,wind_dir_avg,wind_spd_max_dir,wind_spd_avg,wind_spd_gust,battery_voltage,lat,long
2018-02-08 00:00:00+00:00,189.0,191.0,7.33,7.89,,47.59359,-54.27349
2018-02-08 00:10:00+00:00,193.0,195.0,8.52,9.61,,47.59359,-54.27349
2018-02-08 00:20:00+00:00,188.0,192.0,7.23,8.55,,47.59359,-54.27349
2018-02-08 00:30:00+00:00,192.0,194.0,6.75,8.23,,47.59359,-54.27349
2018-02-08 00:40:00+00:00,196.0,196.0,6.29,7.23,,47.59359,-54.27349
2018-02-08 00:50:00+00:00,194.0,199.0,7.63,9.06,,47.59359,-54.27349
2018-02-08 01:00:00+00:00,192.0,192.0,9.11,10.06,,47.59359,-54.27349
2018-02-08 01:10:00+00:00,190.0,188.0,7.19,8.38,,47.59359,-54.27349
2018-02-08 01:20:00+00:00,189.0,185.0,8.19,9.56,,47.59359,-54.27349
2018-02-08 01:30:00+00:00,185.0,186.0,7.09,8.1,,47.59359,-54.27349
2018-02-08 01:40:00+00:00,185.0,185.0,7.84,9.25,,47.59359,-54.27349
2018-02-08 01:50:00+00:00,188.0,193.0,7.74,8.55,,47.59359,-54.27349
2018-02-08 02:00:00+00:00,188.0,191.0,7.5,8.99,,47.59359,-54.27349
2018-02-08 02:10:00+00:00,193.0,196.0,7.54,9.03,,47.59359,-54.27349
2018-02-08 02:20:00+00:00,199.0,196.0,7.85,8.81,,47.59359,-54.27349
2018-02-08 02:30:00+00:00,185.0,189.0,7.45,8.58,,47.59359,-54.27349
2018-02-08 02:40:00+00:00,192.0,192.0,8.36,9.16,,47.59359,-54.27349
2018-02-08 02:50:00+00:00,193.0,196.0,6.11,7.09,,47.59359,-54.27349
2018-02-08 03:00:00+00:00,202.0,204.0,6.72,7.34,,47.59359,-54.27349
2018-02-08 03:10:00+00:00,192.0,184.0,6.38,7.28,,47.59359,-54.27349
2018-02-08 03:20:00+00:00,195.0,201.0,6.21,7.04,,47.59359,-54.27349
2018-02-08 03:30:00+00:00,190.0,199.0,6.52,7.72,,47.59359,-54.27349
2018-02-08 03:40:00+00:00,185.0,183.0,7.34,8.7,,47.59359,-54.27349
2018-02-08 03:50:00+00:00,188.0,183.0,7.94,11.02,,47.59359,-54.27349
2018-02-08 04:00:00+00:00,188.0,187.0,8.72,11.73,,47.59359,-54.27349
2018-02-08 04:10:00+00:00,194.0,198.0,10.49,12.02,,47.59359,-54.27349
2018-02-08 04:20:00+00:00,192.0,193.0,10.05,11.25,,47.59359,-54.27349
2018-02-08 04:30:00+00:00,200.0,206.0,10.49,11.78,,47.59359,-54.27349
2018-02-08 04:40:00+00:00,198.0,193.0,11.06,12.45,,47.59359,-54.27349
2018-02-08 04:50:00+00:00,204.0,206.0,10.62,11.34,,47.59359,-54.27349
2018-02-08 05:00:00+00:00,204.0,201.0,11.88,13.18,,47.59359,-54.27349
2018-02-08 05:10:00+00:00,209.0,212.0,12.01,13.87,,47.59359,-54.27349
2018-02-08 05:20:00+00:00,209.0,209.0,10.83,12.38,,47.59359,-54.27349
2018-02-08 05:30:00+00:00,210.0,210.0,12.89,14.32,,47.59359,-54.27349
2018-02-08 05:40:00+00:00,211.0,213.0,11.12,12.87,,47.59359,-54.27349
2018-02-08 05:50:00+00:00,215.0,217.0,10.01,11.89,,47.59359,-54.27349
2018-02-08 06:00:00+00:00,218.0,218.0,12.6,14.06,,47.59359,-54.27349
2018-02-08 06:10:00+00:00,221.0,213.0,10.94,13.23,,47.59359,-54.27349
2018-02-08 06:20:00+00:00,229.0,230.0,10.66,12.33,,47.59359,-54.27349
2018-02-08 06:30:00+00:00,237.0,235.0,8.39,9.62,,47.59359,-54.27349
2018-02-08 06:40:00+00:00,234.0,238.0,7.84,8.78,,47.59359,-54.27349
2018-02-08 06:50:00+00:00,227.0,229.0,8.41,9.33,,47.59359,-54.27349
2018-02-08 07:00:00+00:00,227.0,227.0,8.6,9.52,,47.59359,-54.27349
2018-02-08 07:10:00+00:00,216.0,217.0,7.93,9.36,,47.59359,-54.27349
2018-02-08 07:20:00+00:00,208.0,207.0,8.74,9.71,,47.59359,-54.27349
2018-02-08 07:30:00+00:00,215.0,213.0,7.18,7.91,,47.59359,-54.27349
2018-02-08 07:40:00+00:00,208.0,213.0,6.71,7.62,,47.59359,-54.27349
2018-02-08 07:50:00+00:00,205.0,203.0,8.27,9.84,,47.59359,-54.27349
2018-02-08 08:00:00+00:00,210.0,210.0,7.36,8.3,,47.59359,-54.27349
2018-02-08 08:10:00+00:00,205.0,208.0,6.5,7.14,,47.59359,-54.27349
2018-02-08 08:20:00+00:00,212.0,215.0,4.71,5.59,,47.59359,-54.27349
2018-02-08 08:30:00+00:00,195.0,211.0,4.29,4.93,,47.59359,-54.27349
2018-02-08 08:40:00+00:00,183.0,184.0,5.7,6.11,,47.59359,-54.27349
2018-02-08 08:50:00+00:00,183.0,184.0,4.76,5.27,,47.59359,-54.27349
2018-02-08 09:00:00+00:00,180.0,180.0,6.0,6.58,,47.59359,-54.27349
2018-02-08 09:10:00+00:00,180.0,179.0,6.53,8.29,,47.59359,-54.27349
2018-02-08 09:20:00+00:00,199.0,198.0,10.36,11.7,,47.59359,-54.27349
2018-02-08 09:30:00+00:00,198.0,194.0,10.84,12.84,,47.59359,-54.27349
2018-02-08 09:40:00+00:00,202.0,205.0,11.36,12.67,,47.59359,-54.27349
2018-02-08 09:50:00+00:00,209.0,205.0,12.45,14.13,,47.59359,-54.27349
2018-02-08 10:00:00+00:00,213.0,209.0,16.16,19.68,,47.59359,-54.27349
2018-02-08 10:10:00+00:00,214.0,211.0,17.12,20.23,,47.59359,-54.27349
2018-02-08 10:20:00+00:00,213.0,210.0,18.43,22.77,,47.59359,-54.27349
2018-02-08 10:30:00+00:00,211.0,210.0,22.57,26.93,,47.59359,-54.27349
2018-02-08 10:40:00+00:00,210.0,210.0,20.85,25.23,,47.59359,-54.27349
2018-02-08 10:50:00+00:00,209.0,212.0,20.58,25.76,,47.59359,-54.27349
2018-02-08 11:00:00+00:00,209.0,208.0,21.53,27.68,,47.59359,-54.27349
2018-02-08 11:10:00+00:00,209.0,216.0,21.29,27.55,,47.59359,-54.27349
2018-02-08 11:20:00+00:00,209.0,208.0,22.94,25.79,,47.59359,-54.27349
2018-02-08 11:30:00+00:00,210.0,208.0,22.86,26.56,,47.59359,-54.27349
2018-02-08 11:40:00+00:00,210.0,209.0,22.52,27.03,,47.59359,-54.27349
2018-02-08 11:50:00+00:00,206.0,205.0,24.4,29.62,,47.59359,-54.27349
2018-02-08 12:00:00+00:00,214.0,212.0,22.72,28.75,,47.59359,-54.27349
2018-02-08 12:10:00+00:00,220.0,221.0,21.76,25.42,,47.59359,-54.27349
2018-02-08 12:20:00+00:00,220.0,219.0,21.35,24.6,,47.59359,-54.27349
2018-02-08 12:30:00+00:00,222.0,221.0,21.11,24.37,,47.59359,-54.27349
2018-02-08 12:40:00+00:00,222.0,228.0,23.62,28.73,,47.59359,-54.27349
2018-02-08 12:50:00+00:00,226.0,217.0,21.01,24.51,,47.59359,-54.27349
2018-02-08 13:00:00+00:00,225.0,222.0,21.61,25.23,,47.59359,-54.27349
2018-02-08 13:10:00+00:00,224.0,222.0,21.51,27.27,,47.59359,-54.27349
2018-02-08 13:20:00+00:00,218.0,217.0,23.9,28.59,,47.59359,-54.27349
2018-02-08 13:30:00+00:00,226.0,230.0,23.02,26.51,,47.59359,-54.27349
2018-02-08 13:40:00+00:00,223.0,229.0,21.04,25.77,,47.59359,-54.27349
2018-02-08 13:50:00+00:00,228.0,230.0,20.64,26.18,,47.59359,-54.27349
2018-02-08 14:00:00+00:00,222.0,224.0,20.75,25.55,,47.59359,-54.27349
2018-02-08 14:10:00+00:00,226.0,230.0,22.78,26.5,,47.59359,-54.27349
2018-02-08 14:20:00+00:00,223.0,225.0,21.04,25.31,,47.59359,-54.27349
2018-02-08 14:30:00+00:00,220.0,216.0,20.63,25.66,,47.59359,-54.27349
2018-02-08 14:40:00+00:00,227.0,220.0,18.12,21.27,,47.59359,-54.27349
2018-02-08 14:50:00+00:00,226.0,227.0,19.03,23.97,,47.59359,-54.27349
2018-02-08 15:00:00+00:00,229.0,229.0,18.55,23.68,,47.59359,-54.27349
2018-02-08 15:10:00+00:00,233.0,235.0,15.38,19.95,,47.59359,-54.27349
2018-02-08 15:20:00+00:00,240.0,239.0,16.45,21.43,,47.59359,-54.27349
2018-02-08 15:30:00+00:00,241.0,250.0,14.13,17.24,,47.59359,-54.27349
2018-02-08 15:40:00+00:00,247.0,238.0,14.41,16.82,,47.59359,-54.27349
2018-02-08 15:50:00+00:00,242.0,245.0,15.25,18.41,,47.59359,-54.27349
2018-02-08 16:00:00+00:00,235.0,233.0,14.4,16.94,,47.59359,-54.27349
2018-02-08 16:10:00+00:00,233.0,233.0,14.9,19.63,,47.59359,-54.27349
2018-02-08 16:20:00+00:00,232.0,227.0,15.0,17.44,,47.59359,-54.27349
2018-02-08 16:30:00+00:00,230.0,232.0,15.51,18.07,,47.59359,-54.27349
2018-02-08 16:40:00+00:00,229.0,232.0,15.4,17.42,,47.59359,-54.27349
2018-02-08 16:50:00+00:00,230.0,232.0,13.51,15.64,,47.59359,-54.27349
2018-02-08 17:00:00+00:00,231.0,225.0,13.33,15.15,,47.59359,-54.27349
2018-02-08 17:10:00+00:00,228.0,227.0,13.51,15.48,,47.59359,-54.27349
2018-02-08 17:20:00+00:00,228.0,226.0,13.92,16.22,,47.59359,-54.27349
2018-02-08 17:30:00+00:00,232.0,229.0,11.67,13.44,,47.59359,-54.27349
2018-02-08 17:40:00+00:00,232.0,235.0,12.63,16.91,,47.59359,-54.27349
2018-02-08 17:50:00+00:00,238.0,233.0,15.73,19.91,,47.59359,-54.27349
2018-02-08 18:00:00+00:00,239.0,238.0,14.83,17.11,,47.59359,-54.27349
2018-02-08 18:10:00+00:00,240.0,234.0,13.52,15.95,,47.59359,-54.27349
2018-02-08 18:20:00+00:00,240.0,240.0,12.93,15.01,,47.59359,-54.27349
2018-02-08 18:30:00+00:00,232.0,230.0,11.59,13.6,,47.59359,-54.27349
2018-02-08 18:40:00+00:00,229.0,234.0,8.43,9.3,,47.59359,-54.27349
2018-02-08 18:50:00+00:00,239.0,235.0,10.94,12.7,,47.59359,-54.27349
2018-02-08 19:00:00+00:00,238.0,238.0,9.71,11.14,,47.59359,-54.27349
2018-02-08 19:10:00+00:00,247.0,250.0,9.1,10.46,,47.59359,-54.27349
2018-02-08 19:20:00+00:00,253.0,252.0,7.88,9.59,,47.59359,-54.27349
2018-02-08 19:30:00+00:00,249.0,245.0,6.57,7.49,,47.59359,-54.27349
2018-02-08 19:40:00+00:00,244.0,253.0,8.54,10.89,,47.59359,-54.27349
2018-02-08 19:50:00+00:00,240.0,245.0,7.13,8.91,,47.59359,-54.27349
2018-02-08 20:00:00+00:00,220.0,220.0,6.01,6.91,,47.59359,-54.27349
2018-02-08 20:10:00+00:00,218.0,216.0,7.07,7.96,,47.59359,-54.27349
2018-02-08 20:20:00+00:00,225.0,225.0,6.7,7.36,,47.59359,-54.27349
2018-02-08 20:30:00+00:00,244.0,240.0,6.86,7.88,,47.59359,-54.27349
2018-02-08 20:40:00+00:00,257.0,258.0,7.47,7.89,,47.59359,-54.27349
2018-02-08 20:50:00+00:00,274.0,276.0,8.92,10.0,,47.59359,-54.27349
2018-02-08 21:00:00+00:00,264.0,263.0,9.9,12.0,,47.59359,-54.27349
2018-02-08 21:10:00+00:00,281.0,283.0,8.91,11.09,,47.59359,-54.27349
2018-02-08 21:20:00+00:00,280.0,281.0,9.91,11.89,,47.59359,-54.27349
2018-02-08 21:30:00+00:00,281.0,280.0,6.45,7.12,,47.59359,-54.27349
2018-02-08 21:40:00+00:00,283.0,283.0,4.82,5.43,,47.59359,-54.27349
2018-02-08 21:50:00+00:00,285.0,285.0,4.3,4.62,,47.59359,-54.27349
2018-02-08 22:00:00+00:00,267.0,269.0,4.42,5.19,,47.59359,-54.27349
2018-02-08 22:10:00+00:00,270.0,271.0,6.2,7.02,,47.59359,-54.27349
2018-02-08 22:20:00+00:00,279.0,280.0,6.06,6.41,,47.59359,-54.27349
2018-02-08 22:30:00+00:00,282.0,284.0,4.62,5.56,,47.59359,-54.27349
2018-02-08 22:40:00+00:00,275.0,272.0,3.98,4.48,,47.59359,-54.27349
2018-02-08 22:50:00+00:00,279.0,288.0,4.74,6.13,,47.59359,-54.27349
2018-02-08 23:00:00+00:00,304.0,295.0,6.49,7.52,,47.59359,-54.27349
2018-02-08 23:10:00+00:00,7.0,7.0,9.58,10.47,,47.59359,-54.27349
2018-02-08 23:20:00+00:00,12.0,16.0,10.5,11.46,,47.59359,-54.27349
2018-02-08 23:30:00+00:00,27.0,32.0,9.31,11.02,,47.59359,-54.27349
2018-02-08 23:40:00+00:00,16.0,14.0,9.04,10.19,,47.59359,-54.27349
2018-02-08 23:50:00+00:00,28.0,29.0,9.8,11.18,,47.59359,-54.27349
